TimeEDT,TemperatureF,Dew PointF,Humidity,Sea Level PressureIn,VisibilityMPH,Wind Direction,Wind SpeedMPH,Gust SpeedMPH,PrecipitationIn,Events,Conditions,WindDirDegrees,DateUTC
12:15 AM,55.4,54.5,97,29.79,1.2,NE,13.8,-,N/A,,Overcast,50,2013-05-21 04:15:00
12:34 AM,55.4,54.5,97,29.78,1.0,ENE,13.8,-,N/A,,Overcast,60,2013-05-21 04:34:00
12:55 AM,55.4,54.5,97,29.78,0.5,ENE,11.5,-,N/A,Fog,Fog,60,2013-05-21 04:55:00
1:15 AM,55.4,54.5,97,29.77,0.8,ENE,13.8,-,N/A,,Overcast,70,2013-05-21 05:15:00
1:34 AM,55.4,54.5,97,29.78,0.5,ENE,12.7,17.3,N/A,Fog,Fog,70,2013-05-21 05:34:00
1:55 AM,55.4,54.5,97,29.77,0.5,ENE,12.7,-,N/A,Fog,Fog,70,2013-05-21 05:55:00
2:15 AM,55.4,54.5,97,29.76,0.5,ENE,11.5,-,N/A,Fog,Fog,70,2013-05-21 06:15:00
2:34 AM,55.4,54.5,97,29.74,0.5,ENE,12.7,-,N/A,Fog,Fog,70,2013-05-21 06:34:00
2:55 AM,55.4,54.5,97,29.74,0.8,ENE,12.7,16.1,N/A,,Overcast,60,2013-05-21 06:55:00
3:15 AM,55.2,54.5,97,29.74,1.0,NE,11.5,-,N/A,,Overcast,50,2013-05-21 07:15:00
3:34 AM,54.3,53.6,97,29.75,0.8,ENE,11.5,-,N/A,,Overcast,60,2013-05-21 07:34:00
3:55 AM,54.1,53.6,98,29.74,1.0,ENE,10.4,-,N/A,,Overcast,60,2013-05-21 07:55:00
4:15 AM,53.1,52.5,98,29.74,1.2,NE,12.7,-,N/A,,Overcast,50,2013-05-21 08:15:00
4:35 AM,52.7,52.2,98,29.73,1.2,ENE,12.7,-,N/A,,Overcast,60,2013-05-21 08:35:00
4:55 AM,52.7,52.2,98,29.76,1.5,ENE,10.4,-,N/A,Rain,Light Rain,70,2013-05-21 08:55:00
5:15 AM,52.7,52.2,98,29.78,1.0,ENE,10.4,-,N/A,Rain,Light Rain,60,2013-05-21 09:15:00
5:35 AM,52.7,52.2,98,29.78,1.0,NE,4.6,-,N/A,Rain,Light Rain,40,2013-05-21 09:35:00
5:55 AM,52.7,52.2,98,29.78,3.0,North,4.6,-,N/A,Rain,Light Rain,10,2013-05-21 09:55:00
6:14 AM,52.7,52.2,98,29.72,4.0,NE,5.8,12.7,N/A,Rain,Rain,50,2013-05-21 10:14:00
6:35 AM,52.7,52.2,98,29.73,10.0,ENE,16.1,-,N/A,,Overcast,70,2013-05-21 10:35:00
6:55 AM,52.7,52.0,97,29.75,10.0,ENE,11.5,-,N/A,,Overcast,60,2013-05-21 10:55:00
7:14 AM,50.7,50.0,97,29.79,7.0,East,5.8,-,N/A,Rain,Heavy Rain,80,2013-05-21 11:14:00
7:35 AM,50.7,50.0,97,29.77,5.0,ENE,11.5,-,N/A,Rain,Light Rain,60,2013-05-21 11:35:00
7:55 AM,50.9,50.2,97,29.77,10.0,ENE,12.7,-,N/A,Rain,Rain,70,2013-05-21 11:55:00
8:14 AM,52.7,52.0,97,29.76,7.0,ENE,10.4,-,N/A,Rain,Rain,60,2013-05-21 12:14:00
8:35 AM,52.7,52.0,97,29.74,7.0,ENE,12.7,-,N/A,Rain,Light Rain,60,2013-05-21 12:35:00
8:55 AM,52.9,52.2,97,29.73,10.0,ENE,12.7,18.4,N/A,,Overcast,60,2013-05-21 12:55:00
9:15 AM,52.7,51.8,97,29.73,5.0,ENE,11.5,-,N/A,Rain,Light Rain,70,2013-05-21 13:15:00
9:35 AM,52.9,51.8,96,29.73,10.0,ENE,11.5,-,N/A,,Overcast,70,2013-05-21 13:35:00
9:55 AM,52.9,52.0,97,29.74,7.0,East,12.7,-,N/A,,Overcast,80,2013-05-21 13:55:00
10:15 AM,54.1,53.1,96,29.74,10.0,East,11.5,17.3,N/A,,Overcast,80,2013-05-21 14:15:00
10:35 AM,55.4,54.0,95,29.74,10.0,ENE,12.7,-,N/A,,Overcast,70,2013-05-21 14:35:00
10:55 AM,55.4,53.4,93,29.75,10.0,ENE,15.0,19.6,N/A,,Overcast,70,2013-05-21 14:55:00
11:15 AM,55.4,53.6,94,29.75,10.0,East,12.7,-,N/A,,Overcast,80,2013-05-21 15:15:00
11:35 AM,57.4,55.2,92,29.75,10.0,East,11.5,16.1,N/A,,Overcast,80,2013-05-21 15:35:00
11:55 AM,57.4,55.4,93,29.75,10.0,ENE,11.5,-,N/A,,Overcast,70,2013-05-21 15:55:00
12:15 PM,57.6,55.6,93,29.75,10.0,ENE,10.4,-,N/A,,Overcast,70,2013-05-21 16:15:00
12:35 PM,57.7,55.4,92,29.74,10.0,ENE,8.1,-,N/A,,Overcast,70,2013-05-21 16:35:00
12:55 PM,58.3,55.2,90,29.74,10.0,ENE,12.7,-,N/A,,Overcast,70,2013-05-21 16:55:00
1:15 PM,60.4,56.5,87,29.73,10.0,ENE,11.5,-,N/A,,Overcast,60,2013-05-21 17:15:00
1:35 PM,62.8,57.7,84,29.72,10.0,ENE,10.4,-,N/A,,Mostly Cloudy,60,2013-05-21 17:35:00
1:55 PM,65.3,59.4,81,29.71,10.0,East,9.2,-,N/A,,Mostly Cloudy,80,2013-05-21 17:55:00
2:15 PM,68.0,61.5,80,29.70,10.0,NE,8.1,-,N/A,,Scattered Clouds,50,2013-05-21 18:15:00
2:35 PM,68.0,60.8,78,29.69,10.0,NE,6.9,-,N/A,,Scattered Clouds,50,2013-05-21 18:35:00
2:55 PM,68.0,60.4,77,29.69,10.0,NE,6.9,-,N/A,,Mostly Cloudy,50,2013-05-21 18:55:00
3:15 PM,68.2,60.3,76,29.69,10.0,East,6.9,-,N/A,,Clear,80,2013-05-21 19:15:00
3:35 PM,71.4,63.1,75,29.68,10.0,East,6.9,-,N/A,,Clear,80,2013-05-21 19:35:00
3:55 PM,70.9,62.1,74,29.68,10.0,SE,5.8,-,N/A,,Clear,130,2013-05-21 19:55:00
4:15 PM,72.9,63.9,73,29.68,10.0,ESE,4.6,-,N/A,,Clear,110,2013-05-21 20:15:00
4:35 PM,72.9,63.3,72,29.68,10.0,East,4.6,-,N/A,,Clear,90,2013-05-21 20:35:00
4:54 PM,72.9,63.0,71,29.67,10.0,ENE,6.9,-,N/A,,Clear,70,2013-05-21 20:54:00
5:15 PM,72.9,62.4,70,29.67,10.0,ENE,5.8,-,N/A,,Clear,70,2013-05-21 21:15:00
5:35 PM,72.9,62.2,69,29.66,10.0,ENE,4.6,-,N/A,,Clear,70,2013-05-21 21:35:00
5:55 PM,61.9,53.1,73,29.67,10.0,SW,4.6,-,N/A,,Clear,220,2013-05-21 21:55:00
6:15 PM,56.5,51.3,83,29.67,10.0,Calm,Calm,-,N/A,,Clear,0,2013-05-21 22:15:00
6:34 PM,60.3,53.4,78,29.67,10.0,SSW,3.5,-,N/A,,Clear,200,2013-05-21 22:34:00
6:55 PM,60.3,53.8,79,29.68,10.0,Calm,Calm,-,N/A,,Clear,0,2013-05-21 22:55:00
7:15 PM,68.0,58.8,72,29.68,10.0,NE,10.4,-,N/A,,Clear,40,2013-05-21 23:15:00
7:34 PM,61.3,53.8,76,29.68,10.0,NNE,12.7,-,N/A,,Scattered Clouds,20,2013-05-21 23:34:00
7:55 PM,58.8,53.2,82,29.70,10.0,North,4.6,-,N/A,,Mostly Cloudy,10,2013-05-21 23:55:00
8:15 PM,57.7,53.4,85,29.73,10.0,NW,5.8,-,N/A,Rain,Rain,310,2013-05-22 00:15:00
8:34 PM,55.4,52.7,91,29.71,10.0,North,9.2,-,N/A,Rain,Rain,350,2013-05-22 00:34:00
8:55 PM,55.4,53.1,92,29.71,7.0,NNE,4.6,-,N/A,Rain,Rain,20,2013-05-22 00:55:00
9:15 PM,54.9,53.1,94,29.69,7.0,North,9.2,-,N/A,Rain,Rain,10,2013-05-22 01:15:00
9:34 PM,55.4,53.8,94,29.72,7.0,East,4.6,-,N/A,Rain,Heavy Rain,90,2013-05-22 01:34:00
9:55 PM,55.4,53.8,94,29.71,7.0,ENE,8.1,-,N/A,Rain,Rain,60,2013-05-22 01:55:00
10:15 PM,55.2,53.6,94,29.71,10.0,ENE,8.1,-,N/A,,Overcast,70,2013-05-22 02:15:00
10:34 PM,54.3,52.7,94,29.72,10.0,NE,8.1,-,N/A,,Overcast,50,2013-05-22 02:34:00
10:55 PM,54.0,52.7,95,29.71,10.0,NE,6.9,-,N/A,,Overcast,50,2013-05-22 02:55:00
11:15 PM,53.1,51.8,95,29.71,10.0,ENE,9.2,-,N/A,,Overcast,70,2013-05-22 03:15:00
11:35 PM,53.1,51.8,95,29.71,10.0,ENE,10.4,-,N/A,,Overcast,60,2013-05-22 03:35:00
11:55 PM,53.1,51.8,95,29.71,10.0,ENE,9.2,-,N/A,,Overcast,70,2013-05-22 03:55:00